Showing default

OPS 0340, 2125

Orbit data source: Space-Track

OPS 0340, 2125 is a payload satellite owned by USAF SSD (US) in SSO that was launched on Thu, 31 Mar 1966 UTC via a THOR BURNER 1 launch vehicle from the Air Force Western Test Range (AFWTR). Payload-class satellites include a variety of spacecraft equipped with specific instruments for various scientific and technological missions. These include communications satellites like Starlink; space stations such as the ISS; scientific satellites like the Hubble; Earth observation satellites from companies like Planet Labs, Umbra, and HawkEye 360; GPS; miniature CubeSats for education and research; and military/defense satellites.

Loading next visibility...
Identifier
2125, 1966-026A
Orbit
SSO
Country
Flag of USUS
Related business
Manufacturer
RCA/East Windsor
Mission
Spacecraft
Bus & Motor
P35?, Unknown motor
Mass
72 kg wet, 72 kg dry
Launch date (UTC)
1966-03-31 (60 years ago)
Launch vehicle
THOR BURNER 1
Launch site
Air Force Western Test Range (AFWTR)
Object type
Payload
Rocket body
Debris
Shape & HBR
Unknown
Radar Cross Section
Medium (>0.1 m² and <1 m²)

Expand to show TLE details & history
Last TLE update: 11 hours ago

TLE from 11 hours ago
0 OPS 0340
1 02125U 66026A   25308.92766042  .00001205  00000-0  22407-3 0  9990
2 02125  98.0134 119.1530 0146445 227.9809 130.8849 14.60321696126817
Epoch: 2025-11-04T22:15Z
TLE epoch observation values (Epoch: 2025-11-04T22:15:49.860Z)
Latitude
-0.00006°
Longitude
100.7876°
Altitude
763.767 km
Speed
7.436 km/s
True Right ascension
07h 56m 36s
True Declination
0° 00' 00"
Sunlit
Object was in daylight at epoch
Visualization orbit readout
Latitude
Unknown
Longitude
Unknown
Altitude
Unknown
Speed
Unknown
Apparent Right ascension
Unknown
Apparent Declination
Unknown
Sunlit
N/A
Visualization observer readout
Local Sidereal Time
05:04:36
Azimuth
Unknown
Elevation
Unknown
Doppler factor
Unknown
Orbital elements
Apogee altitude
792.704 km
Perigee altitude
585.709 km
Semi-major axis
7,067.344 km
Eccentricity
0.01464
Inclination
98.0134°
RAAN
119.153°
Arg. of periapsis
227.9809°
True anomaly
132.13849°
Mean anomaly
130.8849°
Eccentric anomaly
131.5132°
Mean motion
3.65308 °/min
Orbital period
98.55 mins
BSTAR
0.00022407
Loading maneuver chart data...
Computing Atmospheric mass density...
Loading historical data...
Loading historical data...
Loading historical data...
Loading historical data...
Loading historical data...
Loading historical data...
Loading historical data...

Documentation

Showing up to 5 results
|